Regional Weather Roundup
Issued by NWS

Home | Current Version | Previous Version | Text Only | Print | Product List | Glossary Off
Versions: 1 2 3 4 5 6 7 8 9 10 11 12 13 14 15 16 17 18 19 20 21 22 23 24 25 26 27 28

000
ASUS45 KTFX 071510
RWRMT
MONTANA REGIONAL WEATHER ROUNDUP
NATIONAL WEATHER SERVICE GREAT FALLS MT
800 AM MST WED DEC 07 2016

NOTE: "FAIR" INDICATES FEW OR NO CLOUDS BELOW 12000 FEET WITH NO
SIGNIFICANT WEATHER AND/OR OBSTRUCTIONS TO VISIBILITY.

MTZ001>007-043-071600-
WEST OF THE DIVIDE

CITY           SKY/WX    TMP DP  RH WIND       PRES   REMARKS
ANACONDA         N/A      0  -8  71 NE3       30.26R
DEER LODGE       N/A      1  -8  66 NW7       30.31R WCI -11
EUREKA           N/A     -9 -13  84 CALM      30.48R
HAMILTON         N/A     12   1  62 CALM      30.33R
LIBBY            N/A     12   1  62 CALM      30.42R
PLAINS           N/A     16   2  54 N5        30.39R
RONAN            N/A     14   7  74 CALM      30.36R
$$

MTZ008-052>055-071600-
SOUTHWEST MONTANA

CITY           SKY/WX    TMP DP  RH WIND       PRES   REMARKS
THREE FORKS      N/A      3 -59   4 CALM      30.28R
TWIN BRIDGES     N/A      2  -8  62 N10       30.19R WCI -14
$$

MTZ009-010-012-014-046-048-049-054-071600-
EAST SLOPES AND CENTRAL MONTANA

CITY           SKY/WX    TMP DP  RH WIND       PRES   REMARKS
CHOTEAU          N/A      0  -8  71 MISG      30.43R
$$

MTZ011-013-016-021-045-047-050-051-071600-
NORTH CENTRAL MONTANA

CITY           SKY/WX    TMP DP  RH WIND       PRES   REMARKS
HAVRE          CLOUDY     0  -6  78 SW12      30.52R WCI -18
CHINOOK          N/A      1  -6  71 W12       30.52R WCI -15
$$

MTZ017>020-022>027-061-062-071600-
NORTHEAST MONTANA

CITY           SKY/WX    TMP DP  RH WIND       PRES   REMARKS
JORDAN           N/A     -1  -7  75 NW18      30.43R WCI -22
PLENTYWOOD       N/A     -6 -11  77 NW24G30   30.32R WCI -32
POPLAR           N/A     -2 -11  65 W9        30.45R WCI -18
SCOBEY           N/A     -6 -16  62 W9        30.32R WCI -23
$$

MTZ028>42-056>058-071600-
SOUTHCENTRAL AND SOUTHEAST MONTANA

CITY           SKY/WX    TMP DP  RH WIND       PRES   REMARKS
BIG TIMBER     CLOUDY     3  -4  72 NW6       30.31R WCI  -8
FORSYTH          N/A      1  -4  78 W10       30.44R WCI -14
LAUREL           N/A      0 -11  60 NW1       30.30R
ROUNDUP          N/A     -2 -11  65 S1        30.26R
$$

REGIONAL REPORTS...DAKOTAS

CITY           SKY/WX    TMP DP  RH WIND       PRES   REMARKS
BUFFALO SD       N/A      2  -5  72 NW25      30.21R WCI -22
$$

REGIONAL REPORTS...WYOMING/IDAHO/WASHINGTON

CITY           SKY/WX    TMP DP  RH WIND       PRES   REMARKS
YELLOWSTONE LA   N/A    -15 -19  82 NW3       29.99R
$$

REGIONAL REPORTS...ALBERTA

CITY           SKY/WX    TMP DP  RH WIND       PRES   REMARKS
$$

REGIONAL REPORTS...SASKATCHEWAN

CITY           SKY/WX    TMP DP  RH WIND       PRES   REMARKS
SWIFT CURRENT  FLURRIES  -8 -11  84 NW22      30.35R WCI -33
SASKATOON      PTCLDY     0  -6  78 NW14G21   30.42R WCI -19
$$




USA.gov is the U.S. government's official web portal to all federal, state and local government web resources and services.